VINASAT-2

Last updated on Jan. 20, 2021, 6:22 a.m. UTC

1 38332U 12023B   21019.86040990 -.00000324  00000-0  00000-0 0  9996
2 38332   0.0422 279.1010 0002075  26.4624 255.4605  1.00271575 26864
UTC
Height (km)
Latitude
Longitude
Inclination
Orbital Period
UTC large
Height (km)
Speed (km/s)
/
Latitude / Longitude
Inclination (degrees)
Orbital Period (minutes)
Azimuth
Elevation
Range (km)
Doppler Factor
iOS Compass Heading
iOS Angle

Next 30 passes for location: Hong Kong

Rise time Rise Azimuth (degrees) Set time Set Azimuth (degrees) Duration Max altitude (degrees)

No matching passes for this satellites